Time,TemperatureF,DewpointF,PressureIn,WindDirection,WindDirectionDegrees,WindSpeedMPH,WindSpeedGustMPH,Humidity,HourlyPrecipIn,Conditions,Clouds,dailyrainin,SoftwareType,DateUTC
2013-05-10 00:04:00,32.2,19.5,28.17,NE,44,0.0,0.0,59,0.00,,---,0.00,VWS V14.01,2013-05-10 05:04:00,
2013-05-10 00:09:00,32.1,19.8,28.17,NE,44,1.0,2.0,60,0.00,,---,0.00,VWS V14.01,2013-05-10 05:09:00,
2013-05-10 00:14:00,32.0,19.7,28.17,NE,44,1.0,1.0,60,0.00,,---,0.00,VWS V14.01,2013-05-10 05:14:00,
2013-05-10 00:19:00,31.9,19.6,28.17,NE,44,0.0,1.0,60,0.00,,---,0.00,VWS V14.01,2013-05-10 05:19:00,
2013-05-10 00:24:00,32.0,19.7,28.17,NE,45,0.0,0.0,60,0.00,,---,0.00,VWS V14.01,2013-05-10 05:24:00,
2013-05-10 00:29:00,31.9,19.6,28.17,NE,45,0.0,0.0,60,0.00,,---,0.00,VWS V14.01,2013-05-10 05:29:00,
2013-05-10 00:34:00,31.5,20.4,28.17,NE,45,0.0,0.0,63,0.00,,---,0.00,VWS V14.01,2013-05-10 05:34:00,
2013-05-10 00:39:00,31.0,20.3,28.17,NE,45,0.0,0.0,64,0.00,,---,0.00,VWS V14.01,2013-05-10 05:39:00,
2013-05-10 00:45:00,30.5,20.1,28.17,NE,45,0.0,0.0,65,0.00,,---,0.00,VWS V14.01,2013-05-10 05:45:00,
2013-05-10 00:50:00,30.0,20.7,28.17,NE,45,0.0,0.0,68,0.00,,---,0.00,VWS V14.01,2013-05-10 05:50:00,
2013-05-10 00:55:00,29.5,20.6,28.17,NE,45,0.0,0.0,69,0.00,,---,0.00,VWS V14.01,2013-05-10 05:55:00,
2013-05-10 01:00:00,29.0,20.8,28.17,NE,45,0.0,0.0,71,0.00,,---,0.00,VWS V14.01,2013-05-10 06:00:00,
2013-05-10 01:05:00,28.7,20.8,28.17,NE,45,0.0,0.0,72,0.00,,---,0.00,VWS V14.01,2013-05-10 06:05:00,
2013-05-10 01:10:00,28.4,20.2,28.17,NE,45,0.0,0.0,71,0.00,,---,0.00,VWS V14.01,2013-05-10 06:10:00,
2013-05-10 01:16:00,28.5,20.0,28.17,NE,45,0.0,0.0,70,0.00,,---,0.00,VWS V14.01,2013-05-10 06:16:00,
2013-05-10 01:21:00,28.5,20.0,28.17,NE,45,0.0,0.0,70,0.00,,---,0.00,VWS V14.01,2013-05-10 06:21:00,
2013-05-10 01:26:00,28.6,20.4,28.17,NE,45,0.0,0.0,71,0.00,,---,0.00,VWS V14.01,2013-05-10 06:26:00,
2013-05-10 01:32:00,28.7,20.2,28.16,NE,45,0.0,0.0,70,0.00,,---,0.00,VWS V14.01,2013-05-10 06:32:00,
2013-05-10 01:37:00,28.8,20.3,28.16,NE,45,0.0,0.0,70,0.00,,---,0.00,VWS V14.01,2013-05-10 06:37:00,
2013-05-10 01:42:00,28.8,20.3,28.16,NE,45,0.0,0.0,70,0.00,,---,0.00,VWS V14.01,2013-05-10 06:42:00,
2013-05-10 01:47:00,28.8,19.9,28.16,NE,45,0.0,0.0,69,0.00,,---,0.00,VWS V14.01,2013-05-10 06:47:00,
2013-05-10 01:52:00,28.7,19.8,28.16,NE,45,0.0,0.0,69,0.00,,---,0.00,VWS V14.01,2013-05-10 06:52:00,
2013-05-10 01:57:00,28.7,19.8,28.16,NE,45,0.0,0.0,69,0.00,,---,0.00,VWS V14.01,2013-05-10 06:57:00,
2013-05-10 02:02:00,28.9,20.0,28.16,NE,45,0.0,0.0,69,0.00,,---,0.00,VWS V14.01,2013-05-10 07:02:00,
2013-05-10 02:08:00,29.0,20.1,28.16,NE,45,0.0,0.0,69,0.00,,---,0.00,VWS V14.01,2013-05-10 07:08:00,
2013-05-10 02:13:00,29.0,20.1,28.16,NE,45,0.0,0.0,69,0.00,,---,0.00,VWS V14.01,2013-05-10 07:13:00,
2013-05-10 02:18:00,28.8,19.9,28.15,NE,45,0.0,1.0,69,0.00,,---,0.00,VWS V14.01,2013-05-10 07:18:00,
2013-05-10 02:23:00,29.0,20.1,28.15,NE,45,0.0,1.0,69,0.00,,---,0.00,VWS V14.01,2013-05-10 07:23:00,
2013-05-10 02:28:00,29.0,20.1,28.15,NE,45,0.0,0.0,69,0.00,,---,0.00,VWS V14.01,2013-05-10 07:28:00,
2013-05-10 02:33:00,28.8,19.9,28.15,NE,45,0.0,0.0,69,0.00,,---,0.00,VWS V14.01,2013-05-10 07:33:00,
2013-05-10 02:39:00,28.6,19.7,28.15,NE,45,0.0,0.0,69,0.00,,---,0.00,VWS V14.01,2013-05-10 07:39:00,
2013-05-10 02:44:00,28.4,19.9,28.15,NE,45,0.0,0.0,70,0.00,,---,0.00,VWS V14.01,2013-05-10 07:44:00,
2013-05-10 02:49:00,28.3,19.8,28.15,NE,45,0.0,0.0,70,0.00,,---,0.00,VWS V14.01,2013-05-10 07:49:00,
2013-05-10 02:54:00,28.0,19.8,28.15,NE,45,0.0,0.0,71,0.00,,---,0.00,VWS V14.01,2013-05-10 07:54:00,
2013-05-10 02:59:00,27.9,19.7,28.15,NE,45,0.0,0.0,71,0.00,,---,0.00,VWS V14.01,2013-05-10 07:59:00,
2013-05-10 03:04:00,27.8,20.0,28.15,NE,45,0.0,0.0,72,0.00,,---,0.00,VWS V14.01,2013-05-10 08:04:00,
2013-05-10 03:10:00,27.8,20.0,28.15,NE,45,0.0,0.0,72,0.00,,---,0.00,VWS V14.01,2013-05-10 08:10:00,
2013-05-10 03:15:00,27.7,19.9,28.15,NE,45,0.0,0.0,72,0.00,,---,0.00,VWS V14.01,2013-05-10 08:15:00,
2013-05-10 03:20:00,27.5,19.7,28.15,NE,45,0.0,0.0,72,0.00,,---,0.00,VWS V14.01,2013-05-10 08:20:00,
2013-05-10 03:25:00,27.5,20.0,28.15,NE,45,0.0,0.0,73,0.00,,---,0.00,VWS V14.01,2013-05-10 08:25:00,
2013-05-10 03:30:00,27.1,19.6,28.15,NE,45,0.0,0.0,73,0.00,,---,0.00,VWS V14.01,2013-05-10 08:30:00,
2013-05-10 03:35:00,27.0,19.8,28.15,NE,45,0.0,1.0,74,0.00,,---,0.00,VWS V14.01,2013-05-10 08:35:00,
2013-05-10 03:41:00,26.9,19.7,28.15,NE,45,0.0,0.0,74,0.00,,---,0.00,VWS V14.01,2013-05-10 08:41:00,
2013-05-10 03:46:00,26.8,20.0,28.15,NE,45,0.0,0.0,75,0.00,,---,0.00,VWS V14.01,2013-05-10 08:46:00,
2013-05-10 03:51:00,26.7,19.9,28.15,NE,45,0.0,0.0,75,0.00,,---,0.00,VWS V14.01,2013-05-10 08:51:00,
2013-05-10 03:56:00,26.5,19.7,28.15,NE,45,0.0,0.0,75,0.00,,---,0.00,VWS V14.01,2013-05-10 08:56:00,
2013-05-10 04:01:00,26.6,20.1,28.14,NE,45,0.0,0.0,76,0.00,,---,0.00,VWS V14.01,2013-05-10 09:01:00,
2013-05-10 04:06:00,26.8,20.3,28.14,NE,45,0.0,0.0,76,0.00,,---,0.00,VWS V14.01,2013-05-10 09:06:00,
2013-05-10 04:11:00,27.0,20.5,28.14,NE,45,1.0,2.0,76,0.00,,---,0.00,VWS V14.01,2013-05-10 09:11:00,
2013-05-10 04:17:00,27.3,20.4,28.14,NE,45,0.0,1.0,75,0.00,,---,0.00,VWS V14.01,2013-05-10 09:17:00,
2013-05-10 04:22:00,27.5,20.3,28.14,NE,45,0.0,0.0,74,0.00,,---,0.00,VWS V14.01,2013-05-10 09:22:00,
2013-05-10 04:27:00,27.5,20.3,28.14,NE,45,0.0,2.0,74,0.00,,---,0.00,VWS V14.01,2013-05-10 09:27:00,
2013-05-10 04:32:00,27.6,20.7,28.14,NE,45,0.0,0.0,75,0.00,,---,0.00,VWS V14.01,2013-05-10 09:32:00,
2013-05-10 04:37:00,27.3,20.4,28.14,NE,45,0.0,0.0,75,0.00,,---,0.00,VWS V14.01,2013-05-10 09:37:00,
2013-05-10 04:42:00,27.2,20.3,28.14,NE,45,0.0,1.0,75,0.00,,---,0.00,VWS V14.01,2013-05-10 09:42:00,
2013-05-10 04:47:00,27.2,20.6,28.14,NE,45,0.0,2.0,76,0.00,,---,0.00,VWS V14.01,2013-05-10 09:47:00,
2013-05-10 04:52:00,27.4,20.5,28.14,NE,45,0.0,0.0,75,0.00,,---,0.00,VWS V14.01,2013-05-10 09:52:00,
2013-05-10 04:58:00,27.4,20.8,28.14,NE,45,0.0,2.0,76,0.00,,---,0.00,VWS V14.01,2013-05-10 09:58:00,
2013-05-10 05:03:00,27.2,20.6,28.14,NE,45,0.0,0.0,76,0.00,,---,0.00,VWS V14.01,2013-05-10 10:03:00,
2013-05-10 05:08:00,27.1,20.5,28.14,NE,45,0.0,0.0,76,0.00,,---,0.00,VWS V14.01,2013-05-10 10:08:00,
2013-05-10 05:13:00,27.1,20.5,28.14,NE,45,2.0,2.0,76,0.00,,---,0.00,VWS V14.01,2013-05-10 10:13:00,
2013-05-10 05:18:00,27.0,20.8,28.13,NE,45,0.0,0.0,77,0.00,,---,0.00,VWS V14.01,2013-05-10 10:18:00,
2013-05-10 05:23:00,26.9,20.7,28.13,NE,45,1.0,1.0,77,0.00,,---,0.00,VWS V14.01,2013-05-10 10:23:00,
2013-05-10 05:28:00,26.8,20.6,28.13,NE,45,0.0,0.0,77,0.00,,---,0.00,VWS V14.01,2013-05-10 10:28:00,
2013-05-10 05:33:00,26.6,20.4,28.13,NE,45,0.0,0.0,77,0.00,,---,0.00,VWS V14.01,2013-05-10 10:33:00,
2013-05-10 05:39:00,26.5,20.6,28.13,NE,45,0.0,0.0,78,0.00,,---,0.00,VWS V14.01,2013-05-10 10:39:00,
2013-05-10 05:44:00,26.5,20.6,28.13,NE,45,0.0,2.0,78,0.00,,---,0.00,VWS V14.01,2013-05-10 10:44:00,
2013-05-10 05:49:00,26.6,20.7,28.13,NE,45,0.0,0.0,78,0.00,,---,0.00,VWS V14.01,2013-05-10 10:49:00,
2013-05-10 05:54:00,26.5,20.6,28.13,NE,45,0.0,0.0,78,0.00,,---,0.00,VWS V14.01,2013-05-10 10:54:00,
2013-05-10 05:59:00,26.4,20.5,28.13,NE,45,1.0,3.0,78,0.00,,---,0.00,VWS V14.01,2013-05-10 10:59:00,
2013-05-10 06:05:00,26.5,20.6,28.13,NE,45,0.0,1.0,78,0.00,,---,0.00,VWS V14.01,2013-05-10 11:05:00,
2013-05-10 06:10:00,26.7,22.8,28.13,NE,45,0.0,0.0,85,0.00,,---,0.00,VWS V14.01,2013-05-10 11:10:00,
2013-05-10 06:15:00,27.0,21.1,28.12,NE,45,0.0,0.0,78,0.00,,---,0.00,VWS V14.01,2013-05-10 11:15:00,
2013-05-10 06:20:00,27.2,21.3,28.12,ENE,64,1.0,3.0,78,0.00,,---,0.00,VWS V14.01,2013-05-10 11:20:00,
2013-05-10 06:25:00,27.6,21.4,28.12,ENE,72,5.0,6.0,77,0.00,,---,0.00,VWS V14.01,2013-05-10 11:25:00,
2013-05-10 06:31:00,28.4,21.5,28.12,East,85,2.0,5.0,75,0.00,,---,0.00,VWS V14.01,2013-05-10 11:31:00,
2013-05-10 06:36:00,28.9,21.7,28.12,ENE,77,0.0,0.0,74,0.00,,---,0.00,VWS V14.01,2013-05-10 11:36:00,
2013-05-10 06:41:00,29.3,22.1,28.12,East,79,3.0,5.0,74,0.00,,---,0.00,VWS V14.01,2013-05-10 11:41:00,
2013-05-10 06:46:00,29.7,21.8,28.12,East,92,2.0,3.0,72,0.00,,---,0.00,VWS V14.01,2013-05-10 11:46:00,
2013-05-10 06:51:00,30.0,21.8,28.12,ENE,66,1.0,4.0,71,0.00,,---,0.00,VWS V14.01,2013-05-10 11:51:00,
2013-05-10 06:56:00,30.5,22.2,28.12,ENE,69,3.0,3.0,71,0.00,,---,0.00,VWS V14.01,2013-05-10 11:56:00,
2013-05-10 07:01:00,30.8,21.9,28.12,ENE,66,2.0,6.0,69,0.00,,---,0.00,VWS V14.01,2013-05-10 12:01:00,
2013-05-10 07:06:00,31.0,22.0,28.12,ENE,69,3.0,3.0,69,0.00,,---,0.00,VWS V14.01,2013-05-10 12:06:00,
2013-05-10 07:11:00,31.4,22.1,28.12,East,89,2.0,6.0,68,0.00,,---,0.00,VWS V14.01,2013-05-10 12:11:00,
2013-05-10 07:17:00,31.5,21.8,28.12,ESE,108,0.0,5.0,67,0.00,,---,0.00,VWS V14.01,2013-05-10 12:17:00,
2013-05-10 07:22:00,31.5,21.8,28.12,East,98,2.0,2.0,67,0.00,,---,0.00,VWS V14.01,2013-05-10 12:22:00,
2013-05-10 07:27:00,31.9,21.9,28.12,ESE,115,2.0,5.0,66,0.00,,---,0.00,VWS V14.01,2013-05-10 12:27:00,
2013-05-10 07:32:00,31.9,21.1,28.12,ESE,111,5.0,6.0,64,0.00,,---,0.00,VWS V14.01,2013-05-10 12:32:00,
2013-05-10 07:37:00,32.1,20.9,28.12,SE,126,9.0,9.0,63,0.00,,---,0.00,VWS V14.01,2013-05-10 12:37:00,
2013-05-10 07:43:00,32.3,21.1,28.12,ESE,105,10.0,10.0,63,0.00,,---,0.00,VWS V14.01,2013-05-10 12:43:00,
2013-05-10 07:48:00,32.4,20.9,28.11,SSE,157,3.0,7.0,62,0.00,,---,0.00,VWS V14.01,2013-05-10 12:48:00,
2013-05-10 07:53:00,32.9,21.3,28.11,ESE,113,3.0,4.0,62,0.00,,---,0.00,VWS V14.01,2013-05-10 12:53:00,
2013-05-10 07:58:00,33.2,21.2,28.11,East,84,1.0,3.0,61,0.00,,---,0.00,VWS V14.01,2013-05-10 12:58:00,
2013-05-10 08:03:00,33.6,21.6,28.11,ENE,76,2.0,5.0,61,0.00,,---,0.00,VWS V14.01,2013-05-10 13:03:00,
2013-05-10 08:08:00,34.4,21.2,28.11,East,98,1.0,5.0,58,0.00,,---,0.00,VWS V14.01,2013-05-10 13:08:00,
2013-05-10 08:13:00,34.4,20.8,28.11,East,89,8.0,9.0,57,0.00,,---,0.00,VWS V14.01,2013-05-10 13:13:00,
2013-05-10 08:19:00,34.4,20.8,28.11,East,90,8.0,8.0,57,0.00,,---,0.00,VWS V14.01,2013-05-10 13:19:00,
2013-05-10 08:24:00,34.8,20.7,28.11,East,88,1.0,2.0,56,0.00,,---,0.00,VWS V14.01,2013-05-10 13:24:00,
2013-05-10 08:29:00,35.2,21.1,28.11,East,92,3.0,5.0,56,0.00,,---,0.00,VWS V14.01,2013-05-10 13:29:00,
2013-05-10 08:34:00,35.1,21.0,28.11,ENE,59,1.0,5.0,56,0.00,,---,0.00,VWS V14.01,2013-05-10 13:34:00,
2013-05-10 08:39:00,35.5,21.0,28.11,SE,140,1.0,5.0,55,0.00,,---,0.00,VWS V14.01,2013-05-10 13:39:00,
2013-05-10 08:44:00,36.1,21.1,28.11,NE,42,3.0,9.0,54,0.00,,---,0.00,VWS V14.01,2013-05-10 13:44:00,
2013-05-10 08:50:00,36.0,21.0,28.10,North,5,4.0,6.0,54,0.00,,---,0.00,VWS V14.01,2013-05-10 13:50:00,
2013-05-10 08:55:00,36.1,20.6,28.10,NE,55,2.0,3.0,53,0.00,,---,0.00,VWS V14.01,2013-05-10 13:55:00,
2013-05-10 09:00:00,36.4,21.8,28.10,SE,145,2.0,2.0,55,0.00,,---,0.00,VWS V14.01,2013-05-10 14:00:00,
2013-05-10 09:05:00,37.0,21.0,28.10,ENE,77,5.0,7.0,52,0.00,,---,0.00,VWS V14.01,2013-05-10 14:05:00,
2013-05-10 09:10:00,36.9,21.8,28.10,ENE,78,2.0,3.0,54,0.00,,---,0.00,VWS V14.01,2013-05-10 14:10:00,
2013-05-10 09:15:00,37.7,20.8,28.09,SE,133,3.0,7.0,50,0.00,,---,0.00,VWS V14.01,2013-05-10 14:15:00,
2013-05-10 09:21:00,37.5,20.6,28.09,SE,144,2.0,5.0,50,0.00,,---,0.00,VWS V14.01,2013-05-10 14:21:00,
2013-05-10 09:26:00,38.1,20.6,28.09,NE,41,5.0,9.0,49,0.00,,---,0.00,VWS V14.01,2013-05-10 14:26:00,
2013-05-10 09:31:00,38.4,19.9,28.08,South,175,5.0,5.0,47,0.00,,---,0.00,VWS V14.01,2013-05-10 14:31:00,
2013-05-10 09:36:00,38.8,19.3,28.08,East,98,3.0,3.0,45,0.00,,---,0.00,VWS V14.01,2013-05-10 14:36:00,
2013-05-10 09:41:00,39.1,20.1,28.08,East,89,3.0,3.0,46,0.00,,---,0.00,VWS V14.01,2013-05-10 14:41:00,
2013-05-10 09:47:00,39.7,19.6,28.08,SSE,155,5.0,5.0,44,0.00,,---,0.00,VWS V14.01,2013-05-10 14:47:00,
2013-05-10 09:52:00,40.4,19.7,28.08,SSE,166,6.0,10.0,43,0.00,,---,0.00,VWS V14.01,2013-05-10 14:52:00,
2013-05-10 09:57:00,39.9,18.1,28.08,SSE,149,2.0,3.0,41,0.00,,---,0.00,VWS V14.01,2013-05-10 14:57:00,
2013-05-10 10:02:00,39.9,17.5,28.07,East,98,6.0,9.0,40,0.00,,---,0.00,VWS V14.01,2013-05-10 15:02:00,
2013-05-10 10:07:00,40.4,18.0,28.07,ESE,112,4.0,5.0,40,0.00,,---,0.00,VWS V14.01,2013-05-10 15:07:00,
2013-05-10 10:12:00,40.6,18.8,28.07,ENE,74,4.0,6.0,41,0.00,,---,0.00,VWS V14.01,2013-05-10 15:12:00,
2013-05-10 10:17:00,41.3,19.4,28.07,ENE,61,4.0,6.0,41,0.00,,---,0.00,VWS V14.01,2013-05-10 15:17:00,
2013-05-10 10:23:00,41.4,19.5,28.07,East,84,3.0,8.0,41,0.00,,---,0.00,VWS V14.01,2013-05-10 15:23:00,
2013-05-10 10:28:00,41.5,19.6,28.07,SE,142,2.0,6.0,41,0.00,,---,0.00,VWS V14.01,2013-05-10 15:28:00,
2013-05-10 10:33:00,42.2,20.2,28.06,NE,34,1.0,1.0,41,0.00,,---,0.00,VWS V14.01,2013-05-10 15:33:00,
2013-05-10 10:38:00,43.7,21.0,28.06,East,90,1.0,5.0,40,0.00,,---,0.00,VWS V14.01,2013-05-10 15:38:00,
2013-05-10 10:43:00,44.5,21.1,28.06,NE,38,1.0,2.0,39,0.00,,---,0.00,VWS V14.01,2013-05-10 15:43:00,
2013-05-10 10:49:00,44.5,20.5,28.07,South,186,4.0,5.0,38,0.00,,---,0.00,VWS V14.01,2013-05-10 15:49:00,
2013-05-10 10:54:00,44.6,20.6,28.07,SSW,207,2.0,6.0,38,0.00,,---,0.00,VWS V14.01,2013-05-10 15:54:00,
2013-05-10 10:59:00,44.8,20.1,28.07,SSW,199,1.0,3.0,37,0.00,,---,0.00,VWS V14.01,2013-05-10 15:59:00,
2013-05-10 11:04:00,45.6,20.9,28.06,South,189,3.0,3.0,37,0.00,,---,0.00,VWS V14.01,2013-05-10 16:04:00,
2013-05-10 11:09:00,46.3,20.2,28.06,SSW,198,0.0,0.0,35,0.00,,---,0.00,VWS V14.01,2013-05-10 16:09:00,
2013-05-10 11:14:00,45.7,18.3,28.06,SSW,192,2.0,3.0,33,0.00,,---,0.00,VWS V14.01,2013-05-10 16:14:00,
2013-05-10 11:20:00,45.6,19.5,28.06,NW,315,0.0,3.0,35,0.00,,---,0.00,VWS V14.01,2013-05-10 16:20:00,
2013-05-10 11:25:00,45.9,17.7,28.06,SSW,200,0.0,0.0,32,0.00,,---,0.00,VWS V14.01,2013-05-10 16:25:00,
2013-05-10 11:30:00,47.0,20.1,28.05,South,183,1.0,2.0,34,0.00,,---,0.00,VWS V14.01,2013-05-10 16:30:00,
2013-05-10 11:35:00,48.1,18.1,28.05,South,184,4.0,4.0,30,0.00,,---,0.00,VWS V14.01,2013-05-10 16:35:00,
2013-05-10 11:40:00,47.9,18.7,28.05,South,179,4.0,4.0,31,0.00,,---,0.00,VWS V14.01,2013-05-10 16:40:00,
2013-05-10 11:46:00,47.9,16.4,28.04,South,169,2.0,7.0,28,0.00,,---,0.00,VWS V14.01,2013-05-10 16:46:00,
2013-05-10 11:51:00,47.8,17.1,28.04,ENE,71,1.0,5.0,29,0.00,,---,0.00,VWS V14.01,2013-05-10 16:51:00,
2013-05-10 11:56:00,48.4,18.4,28.04,SSW,202,2.0,3.0,30,0.00,,---,0.00,VWS V14.01,2013-05-10 16:56:00,
2013-05-10 12:01:00,49.2,19.1,28.03,SE,138,5.0,5.0,30,0.00,,---,0.00,VWS V14.01,2013-05-10 17:01:00,
2013-05-10 12:06:00,49.0,18.1,28.03,SE,125,0.0,4.0,29,0.00,,---,0.00,VWS V14.01,2013-05-10 17:06:00,
2013-05-10 12:12:00,48.8,20.3,28.03,ESE,111,4.0,4.0,32,0.00,,---,0.00,VWS V14.01,2013-05-10 17:12:00,
2013-05-10 12:17:00,49.2,18.3,28.02,South,178,4.0,5.0,29,0.00,,---,0.00,VWS V14.01,2013-05-10 17:17:00,
2013-05-10 12:22:00,49.6,19.5,28.02,SSE,147,3.0,5.0,30,0.00,,---,0.00,VWS V14.01,2013-05-10 17:22:00,
2013-05-10 12:27:00,49.9,19.7,28.02,SSE,157,6.0,6.0,30,0.00,,---,0.00,VWS V14.01,2013-05-10 17:27:00,
2013-05-10 12:32:00,49.7,18.8,28.01,East,85,3.0,8.0,29,0.00,,---,0.00,VWS V14.01,2013-05-10 17:32:00,
2013-05-10 12:37:00,49.7,19.5,28.01,SSW,198,2.0,4.0,30,0.00,,---,0.00,VWS V14.01,2013-05-10 17:37:00,
2013-05-10 12:42:00,49.9,20.5,28.01,South,183,0.0,3.0,31,0.00,,---,0.00,VWS V14.01,2013-05-10 17:42:00,
2013-05-10 12:48:00,50.1,19.1,28.00,South,173,1.0,3.0,29,0.00,,---,0.00,VWS V14.01,2013-05-10 17:48:00,
2013-05-10 12:53:00,50.3,20.1,28.00,SSE,148,5.0,10.0,30,0.00,,---,0.00,VWS V14.01,2013-05-10 17:53:00,
2013-05-10 12:58:00,50.6,17.9,28.00,SSE,148,1.0,2.0,27,0.00,,---,0.00,VWS V14.01,2013-05-10 17:58:00,
2013-05-10 13:03:00,51.1,20.8,28.00,South,173,3.0,4.0,30,0.00,,---,0.00,VWS V14.01,2013-05-10 18:03:00,
2013-05-10 13:08:00,51.0,20.7,28.00,South,173,7.0,7.0,30,0.00,,---,0.00,VWS V14.01,2013-05-10 18:08:00,
2013-05-10 13:13:00,51.1,19.1,28.00,SW,214,5.0,7.0,28,0.00,,---,0.00,VWS V14.01,2013-05-10 18:13:00,
2013-05-10 13:18:00,51.2,20.0,28.00,SSE,166,0.0,2.0,29,0.00,,---,0.00,VWS V14.01,2013-05-10 18:18:00,
2013-05-10 13:24:00,52.1,20.0,28.00,WSW,257,4.0,4.0,28,0.00,,---,0.00,VWS V14.01,2013-05-10 18:24:00,
2013-05-10 13:29:00,52.2,21.7,28.00,SW,220,5.0,8.0,30,0.00,,---,0.00,VWS V14.01,2013-05-10 18:29:00,
2013-05-10 13:34:00,52.4,23.4,28.00,SSE,157,3.0,4.0,32,0.00,,---,0.00,VWS V14.01,2013-05-10 18:34:00,
2013-05-10 13:39:00,52.2,24.0,28.00,South,175,3.0,5.0,33,0.00,,---,0.00,VWS V14.01,2013-05-10 18:39:00,
2013-05-10 13:45:00,52.1,25.3,28.00,SSE,156,2.0,5.0,35,0.00,,---,0.00,VWS V14.01,2013-05-10 18:45:00,
2013-05-10 13:50:00,51.5,24.8,27.99,SE,130,4.0,4.0,35,0.00,,---,0.00,VWS V14.01,2013-05-10 18:50:00,
2013-05-10 13:55:00,52.1,26.0,27.99,SSE,150,3.0,3.0,36,0.00,,---,0.00,VWS V14.01,2013-05-10 18:55:00,
2013-05-10 14:00:00,52.0,26.5,27.98,SSE,153,0.0,6.0,37,0.00,,---,0.00,VWS V14.01,2013-05-10 19:00:00,
2013-05-10 14:05:00,52.7,25.8,27.98,South,188,2.0,4.0,35,0.00,,---,0.00,VWS V14.01,2013-05-10 19:05:00,
2013-05-10 14:10:00,51.7,26.3,27.98,SSE,161,4.0,6.0,37,0.00,,---,0.00,VWS V14.01,2013-05-10 19:10:00,
2013-05-10 14:16:00,50.7,26.0,27.98,SSE,155,0.0,3.0,38,0.00,,---,0.00,VWS V14.01,2013-05-10 19:16:00,
2013-05-10 14:21:00,51.0,26.9,27.98,South,171,4.0,4.0,39,0.00,,---,0.00,VWS V14.01,2013-05-10 19:21:00,
2013-05-10 14:26:00,50.9,26.2,27.98,SSW,200,2.0,2.0,38,0.00,,---,0.00,VWS V14.01,2013-05-10 19:26:00,
2013-05-10 14:31:00,50.9,26.2,27.97,SSE,167,5.0,5.0,38,0.00,,---,0.00,VWS V14.01,2013-05-10 19:31:00,
2013-05-10 14:36:00,50.9,25.6,27.97,SSW,211,4.0,7.0,37,0.00,,---,0.00,VWS V14.01,2013-05-10 19:36:00,
2013-05-10 14:41:00,50.3,24.4,27.97,ESE,123,8.0,11.0,36,0.00,,---,0.00,VWS V14.01,2013-05-10 19:41:00,
2013-05-10 14:47:00,49.9,23.4,27.97,SSW,198,4.0,6.0,35,0.00,,---,0.00,VWS V14.01,2013-05-10 19:47:00,
2013-05-10 14:52:00,49.9,24.7,27.97,SW,221,6.0,6.0,37,0.00,,---,0.00,VWS V14.01,2013-05-10 19:52:00,
2013-05-10 14:57:00,50.0,25.4,27.97,SSW,194,1.0,4.0,38,0.00,,---,0.00,VWS V14.01,2013-05-10 19:57:00,
2013-05-10 15:02:00,50.4,24.5,27.96,SW,215,5.0,5.0,36,0.00,,---,0.00,VWS V14.01,2013-05-10 20:02:00,
2013-05-10 15:07:00,50.1,23.5,27.96,South,180,6.0,6.0,35,0.00,,---,0.00,VWS V14.01,2013-05-10 20:07:00,
2013-05-10 15:12:00,49.6,23.1,27.96,SSE,150,2.0,5.0,35,0.00,,---,0.00,VWS V14.01,2013-05-10 20:12:00,
2013-05-10 15:18:00,49.2,22.0,27.95,SSE,163,6.0,11.0,34,0.00,,---,0.00,VWS V14.01,2013-05-10 20:18:00,
2013-05-10 15:23:00,49.4,21.5,27.95,SE,144,2.0,8.0,33,0.00,,---,0.00,VWS V14.01,2013-05-10 20:23:00,
2013-05-10 15:28:00,50.0,21.3,27.95,South,183,1.0,3.0,32,0.00,,---,0.00,VWS V14.01,2013-05-10 20:28:00,
2013-05-10 15:33:00,50.1,19.9,27.96,South,177,6.0,10.0,30,0.00,,---,0.00,VWS V14.01,2013-05-10 20:33:00,
2013-05-10 15:38:00,50.0,21.3,27.96,South,171,1.0,4.0,32,0.00,,---,0.00,VWS V14.01,2013-05-10 20:38:00,
2013-05-10 15:43:00,50.4,22.4,27.96,WSW,244,3.0,5.0,33,0.00,,---,0.00,VWS V14.01,2013-05-10 20:43:00,
2013-05-10 15:48:00,50.2,21.5,27.95,SSE,157,1.0,6.0,32,0.00,,---,0.00,VWS V14.01,2013-05-10 20:48:00,
2013-05-10 15:54:00,50.5,21.0,27.95,South,180,2.0,4.0,31,0.00,,---,0.00,VWS V14.01,2013-05-10 20:54:00,
2013-05-10 15:59:00,50.1,20.7,27.95,SW,215,6.0,6.0,31,0.00,,---,0.00,VWS V14.01,2013-05-10 20:59:00,
2013-05-10 16:04:00,49.3,18.4,27.94,South,180,4.0,5.0,29,0.00,,---,0.00,VWS V14.01,2013-05-10 21:04:00,
2013-05-10 16:09:00,49.5,22.3,27.94,South,171,5.0,7.0,34,0.00,,---,0.00,VWS V14.01,2013-05-10 21:09:00,
2013-05-10 16:14:00,49.4,20.0,27.94,SSW,213,5.0,5.0,31,0.00,,---,0.00,VWS V14.01,2013-05-10 21:14:00,
2013-05-10 16:20:00,48.8,18.0,27.93,SSW,202,4.0,7.0,29,0.00,,---,0.00,VWS V14.01,2013-05-10 21:20:00,
2013-05-10 16:25:00,48.5,17.7,27.93,SSW,207,4.0,6.0,29,0.00,,---,0.00,VWS V14.01,2013-05-10 21:25:00,
2013-05-10 16:30:00,48.6,18.6,27.93,SSW,213,1.0,7.0,30,0.00,,---,0.00,VWS V14.01,2013-05-10 21:30:00,
2013-05-10 16:35:00,48.2,17.5,27.93,SSW,212,3.0,7.0,29,0.00,,---,0.00,VWS V14.01,2013-05-10 21:35:00,
2013-05-10 16:41:00,47.6,19.2,27.93,SSE,153,0.0,6.0,32,0.00,,---,0.00,VWS V14.01,2013-05-10 21:41:00,
2013-05-10 16:46:00,47.8,19.4,27.92,SW,232,1.0,4.0,32,0.00,,---,0.00,VWS V14.01,2013-05-10 21:46:00,
2013-05-10 16:51:00,47.5,18.4,27.92,SSW,194,3.0,5.0,31,0.00,,---,0.00,VWS V14.01,2013-05-10 21:51:00,
2013-05-10 16:56:00,47.2,18.9,27.92,SSW,193,3.0,3.0,32,0.00,,---,0.00,VWS V14.01,2013-05-10 21:56:00,
2013-05-10 16:58:00,47.1,18.8,27.92,SW,227,5.0,8.0,32,0.00,,---,0.00,VWS V14.01,2013-05-10 21:58:00,
2013-05-10 16:59:00,47.1,17.3,27.92,SW,226,1.0,8.0,30,0.00,,---,0.00,VWS V14.01,2013-05-10 21:59:00,
2013-05-10 17:01:00,47.0,17.2,27.92,South,182,6.0,8.0,30,0.00,,---,0.00,VWS V14.01,2013-05-10 22:01:00,
2013-05-10 17:06:00,46.7,17.7,27.92,SW,222,2.0,5.0,31,0.00,,---,0.00,VWS V14.01,2013-05-10 22:06:00,
2013-05-10 17:11:00,46.5,17.5,27.92,WSW,247,4.0,5.0,31,0.00,,---,0.00,VWS V14.01,2013-05-10 22:11:00,
2013-05-10 17:16:00,46.3,18.1,27.92,South,189,2.0,4.0,32,0.00,,---,0.00,VWS V14.01,2013-05-10 22:16:00,
2013-05-10 17:21:00,46.3,18.8,27.92,SSE,161,0.0,4.0,33,0.00,,---,0.00,VWS V14.01,2013-05-10 22:21:00,
2013-05-10 17:27:00,46.3,18.8,27.92,South,172,0.0,3.0,33,0.00,,---,0.00,VWS V14.01,2013-05-10 22:27:00,
2013-05-10 17:32:00,46.3,20.2,27.92,SSE,163,0.0,1.0,35,0.00,,---,0.00,VWS V14.01,2013-05-10 22:32:00,
2013-05-10 17:37:00,46.1,18.6,27.92,SSE,163,2.0,5.0,33,0.00,,---,0.00,VWS V14.01,2013-05-10 22:37:00,
2013-05-10 17:42:00,46.0,19.9,27.92,South,177,2.0,3.0,35,0.00,,---,0.00,VWS V14.01,2013-05-10 22:42:00,
2013-05-10 17:47:00,45.8,20.4,27.92,SSE,155,2.0,2.0,36,0.00,,---,0.00,VWS V14.01,2013-05-10 22:47:00,
2013-05-10 17:52:00,45.7,19.0,27.92,SSW,192,0.0,1.0,34,0.00,,---,0.00,VWS V14.01,2013-05-10 22:52:00,
2013-05-10 17:57:00,45.3,18.6,27.92,SSW,195,2.0,3.0,34,0.00,,---,0.00,VWS V14.01,2013-05-10 22:57:00,
2013-05-10 18:02:00,45.0,19.7,27.92,South,180,3.0,6.0,36,0.00,,---,0.00,VWS V14.01,2013-05-10 23:02:00,
2013-05-10 18:07:00,44.7,18.8,27.92,South,180,3.0,5.0,35,0.00,,---,0.00,VWS V14.01,2013-05-10 23:07:00,
2013-05-10 18:13:00,44.4,18.5,27.92,South,186,3.0,6.0,35,0.00,,---,0.00,VWS V14.01,2013-05-10 23:13:00,
2013-05-10 18:18:00,44.1,18.2,27.91,SSE,168,1.0,2.0,35,0.00,,---,0.00,VWS V14.01,2013-05-10 23:18:00,
2013-05-10 18:23:00,43.8,18.0,27.91,South,187,1.0,1.0,35,0.00,,---,0.00,VWS V14.01,2013-05-10 23:23:00,
2013-05-10 18:28:00,43.6,17.8,27.91,South,181,0.0,2.0,35,0.00,,---,0.00,VWS V14.01,2013-05-10 23:28:00,
2013-05-10 18:33:00,43.3,18.2,27.90,SSE,157,2.0,8.0,36,0.00,,---,0.00,VWS V14.01,2013-05-10 23:33:00,
2013-05-10 18:38:00,42.9,17.8,27.90,SE,140,6.0,6.0,36,0.00,,---,0.00,VWS V14.01,2013-05-10 23:38:00,
2013-05-10 18:44:00,42.6,17.5,27.90,SSE,159,4.0,8.0,36,0.00,,---,0.00,VWS V14.01,2013-05-10 23:44:00,
2013-05-10 18:49:00,42.3,17.3,27.88,SSE,153,7.0,7.0,36,0.00,,---,0.00,VWS V14.01,2013-05-10 23:49:00,
2013-05-10 18:54:00,41.9,17.5,27.88,SSE,160,4.0,9.0,37,0.00,,---,0.00,VWS V14.01,2013-05-10 23:54:00,
2013-05-10 18:59:00,41.5,17.8,27.88,SE,134,4.0,8.0,38,0.00,,---,0.00,VWS V14.01,2013-05-10 23:59:00,
2013-05-10 19:04:00,41.1,18.0,27.87,SE,130,0.0,2.0,39,0.00,,---,0.00,VWS V14.01,2013-05-11 00:04:00,
2013-05-10 19:10:00,40.9,17.3,27.87,South,172,1.0,6.0,38,0.00,,---,0.00,VWS V14.01,2013-05-11 00:10:00,
2013-05-10 19:15:00,40.5,17.5,27.87,South,181,0.0,0.0,39,0.00,,---,0.00,VWS V14.01,2013-05-11 00:15:00,
2013-05-10 19:20:00,40.3,17.3,27.86,South,190,2.0,3.0,39,0.00,,---,0.00,VWS V14.01,2013-05-11 00:20:00,
2013-05-10 19:25:00,40.1,18.3,27.86,South,188,5.0,6.0,41,0.00,,---,0.00,VWS V14.01,2013-05-11 00:25:00,
2013-05-10 19:30:00,39.9,17.5,27.86,South,190,0.0,6.0,40,0.00,,---,0.00,VWS V14.01,2013-05-11 00:30:00,
2013-05-10 19:36:00,39.8,16.9,27.86,South,186,4.0,4.0,39,0.00,,---,0.00,VWS V14.01,2013-05-11 00:36:00,
2013-05-10 19:41:00,39.8,16.9,27.86,South,183,0.0,5.0,39,0.00,,---,0.00,VWS V14.01,2013-05-11 00:41:00,
2013-05-10 19:46:00,39.9,15.1,27.85,SSW,192,1.0,4.0,36,0.00,,---,0.00,VWS V14.01,2013-05-11 00:46:00,
2013-05-10 19:51:00,39.9,14.5,27.85,South,171,1.0,5.0,35,0.00,,---,0.00,VWS V14.01,2013-05-11 00:51:00,
2013-05-10 19:56:00,39.8,14.4,27.85,SSE,155,5.0,5.0,35,0.00,,---,0.00,VWS V14.01,2013-05-11 00:56:00,
2013-05-10 20:02:00,39.7,13.6,27.85,SSW,199,5.0,5.0,34,0.00,,---,0.00,VWS V14.01,2013-05-11 01:02:00,
2013-05-10 20:07:00,39.5,13.5,27.85,South,170,6.0,6.0,34,0.00,,---,0.00,VWS V14.01,2013-05-11 01:07:00,
2013-05-10 20:12:00,39.3,11.2,27.85,SSE,166,2.0,8.0,31,0.00,,---,0.00,VWS V14.01,2013-05-11 01:12:00,
2013-05-10 20:17:00,39.1,10.3,27.84,SSE,148,9.0,9.0,30,0.00,,---,0.00,VWS V14.01,2013-05-11 01:17:00,
2013-05-10 20:22:00,38.9,10.1,27.84,SSW,194,5.0,5.0,30,0.00,,---,0.00,VWS V14.01,2013-05-11 01:22:00,
2013-05-10 20:27:00,38.7,9.2,27.84,South,190,1.0,4.0,29,0.00,,---,0.00,VWS V14.01,2013-05-11 01:27:00,
2013-05-10 20:32:00,38.5,9.8,27.83,SSW,196,5.0,5.0,30,0.00,,---,0.00,VWS V14.01,2013-05-11 01:32:00,
2013-05-10 20:37:00,38.2,9.5,27.83,SSW,199,1.0,1.0,30,0.00,,---,0.00,VWS V14.01,2013-05-11 01:37:00,
2013-05-10 20:42:00,38.0,10.1,27.83,SSE,163,1.0,2.0,31,0.00,,---,0.00,VWS V14.01,2013-05-11 01:42:00,
2013-05-10 20:47:00,37.9,8.5,27.83,South,172,3.0,8.0,29,0.00,,---,0.00,VWS V14.01,2013-05-11 01:47:00,
2013-05-10 20:53:00,37.8,8.4,27.83,ESE,121,0.0,6.0,29,0.00,,---,0.00,VWS V14.01,2013-05-11 01:53:00,
2013-05-10 20:58:00,37.6,9.7,27.83,South,183,4.0,6.0,31,0.00,,---,0.00,VWS V14.01,2013-05-11 01:58:00,
2013-05-10 21:03:00,37.5,9.6,27.83,South,175,1.0,2.0,31,0.00,,---,0.00,VWS V14.01,2013-05-11 02:03:00,
2013-05-10 21:08:00,37.4,9.5,27.83,SSE,151,1.0,7.0,31,0.00,,---,0.00,VWS V14.01,2013-05-11 02:08:00,
2013-05-10 21:14:00,37.3,8.7,27.83,SW,236,3.0,4.0,30,0.00,,---,0.00,VWS V14.01,2013-05-11 02:14:00,
2013-05-10 21:19:00,37.3,8.7,27.83,South,173,1.0,2.0,30,0.00,,---,0.00,VWS V14.01,2013-05-11 02:19:00,
2013-05-10 21:24:00,37.2,10.1,27.83,SSW,209,2.0,3.0,32,0.00,,---,0.00,VWS V14.01,2013-05-11 02:24:00,
2013-05-10 21:29:00,37.1,10.7,27.83,South,188,4.0,4.0,33,0.00,,---,0.00,VWS V14.01,2013-05-11 02:29:00,
2013-05-10 21:34:00,36.9,10.5,27.83,SW,223,4.0,9.0,33,0.00,,---,0.00,VWS V14.01,2013-05-11 02:34:00,
2013-05-10 21:39:00,36.8,10.4,27.83,South,183,4.0,5.0,33,0.00,,---,0.00,VWS V14.01,2013-05-11 02:39:00,
2013-05-10 21:44:00,36.6,10.2,27.83,South,180,2.0,8.0,33,0.00,,---,0.00,VWS V14.01,2013-05-11 02:44:00,
2013-05-10 21:49:00,36.6,10.2,27.83,South,189,3.0,6.0,33,0.00,,---,0.00,VWS V14.01,2013-05-11 02:49:00,
2013-05-10 21:54:00,36.5,10.1,27.83,SSW,209,3.0,4.0,33,0.00,,---,0.00,VWS V14.01,2013-05-11 02:54:00,
2013-05-10 22:00:00,36.5,10.1,27.83,SSW,193,1.0,3.0,33,0.00,,---,0.00,VWS V14.01,2013-05-11 03:00:00,
2013-05-10 22:05:00,36.5,10.8,27.82,SW,220,2.0,5.0,34,0.00,,---,0.00,VWS V14.01,2013-05-11 03:05:00,
2013-05-10 22:10:00,36.5,10.8,27.82,SSW,204,2.0,2.0,34,0.00,,---,0.00,VWS V14.01,2013-05-11 03:10:00,
2013-05-10 22:15:00,36.5,12.1,27.82,South,186,3.0,3.0,36,0.00,,---,0.00,VWS V14.01,2013-05-11 03:15:00,
2013-05-10 22:20:00,36.4,12.0,27.82,SSW,193,2.0,6.0,36,0.00,,---,0.00,VWS V14.01,2013-05-11 03:20:00,
2013-05-10 22:26:00,36.4,12.6,27.82,South,190,2.0,3.0,37,0.00,,---,0.00,VWS V14.01,2013-05-11 03:26:00,
2013-05-10 22:30:00,36.5,12.1,27.82,SW,218,5.0,8.0,36,0.00,,---,0.00,VWS V14.01,2013-05-11 03:30:00,
2013-05-10 22:35:00,36.6,12.2,27.82,West,269,2.0,5.0,36,0.00,,---,0.00,VWS V14.01,2013-05-11 03:35:00,
2013-05-10 22:40:00,36.6,12.8,27.82,North,355,4.0,7.0,37,0.00,,---,0.00,VWS V14.01,2013-05-11 03:40:00,
2013-05-10 22:45:00,36.8,13.0,27.84,NW,325,0.0,2.0,37,0.00,,---,0.00,VWS V14.01,2013-05-11 03:45:00,
2013-05-10 22:51:00,36.8,12.4,27.84,WNW,284,9.0,9.0,36,0.00,,---,0.00,VWS V14.01,2013-05-11 03:51:00,
2013-05-10 22:56:00,36.8,11.7,27.84,WNW,295,1.0,6.0,35,0.00,,---,0.00,VWS V14.01,2013-05-11 03:56:00,
2013-05-10 23:01:00,36.7,11.6,27.84,West,273,3.0,6.0,35,0.00,,---,0.00,VWS V14.01,2013-05-11 04:01:00,
2013-05-10 23:02:00,36.6,11.6,27.84,West,270,6.0,6.0,35,0.00,,---,0.00,VWS V14.01,2013-05-11 04:02:00,
2013-05-10 23:07:00,36.4,12.0,27.84,West,266,1.0,3.0,36,0.00,,---,0.00,VWS V14.01,2013-05-11 04:07:00,
2013-05-10 23:13:00,36.2,11.8,27.84,West,259,3.0,4.0,36,0.00,,---,0.00,VWS V14.01,2013-05-11 04:13:00,
2013-05-10 23:18:00,36.2,12.4,27.84,West,260,1.0,3.0,37,0.00,,---,0.00,VWS V14.01,2013-05-11 04:18:00,
2013-05-10 23:23:00,36.1,13.0,27.84,WSW,237,2.0,2.0,38,0.00,,---,0.00,VWS V14.01,2013-05-11 04:23:00,
2013-05-10 23:28:00,36.0,12.9,27.84,SW,232,5.0,5.0,38,0.00,,---,0.00,VWS V14.01,2013-05-11 04:28:00,
2013-05-10 23:34:00,36.0,13.5,27.83,SW,234,4.0,4.0,39,0.00,,---,0.00,VWS V14.01,2013-05-11 04:34:00,
2013-05-10 23:39:00,36.0,14.6,27.83,WSW,240,2.0,3.0,41,0.00,,---,0.00,VWS V14.01,2013-05-11 04:39:00,
2013-05-10 23:44:00,35.9,15.6,27.83,WSW,254,0.0,3.0,43,0.00,,---,0.00,VWS V14.01,2013-05-11 04:44:00,
2013-05-10 23:49:00,35.7,16.5,27.83,WSW,254,0.0,1.0,45,0.00,,---,0.00,VWS V14.01,2013-05-11 04:49:00,
2013-05-10 23:54:00,35.5,18.2,27.83,West,259,3.0,4.0,49,0.00,,---,0.00,VWS V14.01,2013-05-11 04:54:00,
2013-05-10 23:59:00,35.1,21.0,27.83,West,260,0.0,1.0,56,0.00,,---,0.00,VWS V14.01,2013-05-11 04:59:00,